Location: Orzech
(50.4330°N, 18.9330°E)
Time: 03:36:30
(UTC+01:00)

ISS - Visible Passes

Search period start: 25 January 2020 00:00
Search period end: 04 February 2020 00:00
Orbit: 415 x 423 km, 51.6° (Epoch: 25 January)

Date Brightness Start Highest point End Pass type
(mag) Time Alt. Az. Time Alt. Az. Time Alt. Az.
25 Jan -3.1 17:39:26 10° SW 17:42:40 44° SSE 17:44:31 22° E visible
25 Jan -1.3 19:16:00 10° W 19:17:29 24° W 19:17:29 24° W visible
26 Jan -3.9 18:28:28 10° WSW 18:31:51 86° NNW 18:31:56 84° NE visible
27 Jan -3.8 17:40:56 10° WSW 17:44:20 78° SSE 17:46:22 22° ENE visible
27 Jan -1.4 19:17:51 10° W 19:19:20 24° WNW 19:19:20 24° WNW visible
28 Jan -3.8 18:30:15 10° W 18:33:38 70° N 18:33:44 69° NNE visible
29 Jan -3.7 17:42:39 10° W 17:46:02 75° N 17:48:08 21° ENE visible
29 Jan -1.4 19:19:35 10° WNW 19:21:06 24° WNW 19:21:06 24° WNW visible
30 Jan -3.9 18:32:00 10° W 18:35:23 74° N 18:35:30 73° NNE visible
31 Jan -3.7 17:44:23 10° W 17:47:47 70° N 17:49:55 21° E visible
31 Jan -1.5 19:21:16 10° WNW 19:22:53 26° W 19:22:53 26° W visible
01 Feb -3.9 18:33:39 10° WNW 18:37:03 81° SSW 18:37:20 72° SE visible
02 Feb -3.8 17:46:02 10° WNW 17:49:27 84° N 17:51:50 18° E visible
02 Feb -1.5 19:22:59 10° W 19:24:48 24° WSW 19:24:48 24° WSW visible
03 Feb -3.0 18:35:18 10° W 18:38:34 46° SSW 18:39:23 37° SSE visible
